Location: Cluj-Napoca
(46.7712°N, 23.6236°E)
Time: 07:48:23
(UTC+02:00)

ISS - Pass Details

Date: 28 January 2021
Orbit: 417 x 422 km, 51.6° (Epoch: 08 March)

Event Time Altitude Azimuth Distance (km) Brightness Sun altitude
Rises 18:13:50 0° 277° (W) 2,371 1.5 -8.9°
Reaches altitude 10° 18:16:03 10° 286° (WNW) 1,508 0.0 -9.3°
Maximum altitude 18:19:12 35° 355° (N) 702 -2.7 -9.8°
Enters shadow 18:21:41 14° 58° (ENE) 1,268 -1.9 -10.2°
